FW5830 Weather Reports


time (UTC)temp
C
wind
direction
speed
KPH
gust
KPH
rain 1hr
cm
rain 24hr
cm
rain mn
cm
humidity
%
barometer
mb
20260505041556 6 0 0.0 1.6 0.10 0.20 0.20 86 1012.1
20260505040055 6 0 0.0 4.8 0.15 0.20 0.20 86 1012.3
20260505034552 7 0 0.0 6.4 0.15 0.18 0.18 85 1012.2
20260505033052 7 68 3.2 12.9 0.10 0.13 0.13 84 1012.4
20260505031549 7 108 9.7 20.9 0.05 0.08 0.08 81 1012.2
20260505030049 8 163 8.0 12.9 0.03 0.05 0.05 75 1011.8
20260505024550 8 122 6.4 20.9 0.00 0.03 0.03 73 1011.5
20260505023056 9 116 8.0 14.5 0.00 0.03 0.03 71 1010.9
20260505021549 10 141 4.8 11.3 0.00 0.03 0.03 69 1010.7
20260505020056 10 0 0.0 0.0 0.00 0.03 0.03 68 1010.4
20260505014549 10 0 0.0 0.0 0.00 0.03 0.03 66 1010.4
20260505013051 10 0 0.0 1.6 0.00 0.03 0.03 66 1010.1
20260505011553 10 0 0.0 1.6 0.03 0.03 0.03 66 1010.2
20260505010051 10 319 0.0 1.6 0.03 0.03 0.03 69 1010.0
20260505004551 10 319 1.6 4.8 0.03 0.03 0.03 68 1010.1
20260505003051 11 324 4.8 11.3 0.03 0.03 0.03 64 1010.4
20260505001553 13 333 4.8 11.3 0.00 0.00 0.00 51 1010.7
20260505000047 13 111 4.8 19.3 0.00 0.00 0.00 45 1010.0
20260504234550 13 101 9.7 17.7 0.00 0.00 0.00 45 1009.9
20260504233050 13 129 14.5 22.5 0.00 0.00 0.00 45 1009.5
20260504231550 13 103 9.7 25.7 0.00 0.00 0.00 44 1009.5
20260504230047 13 151 25.7 41.8 0.00 0.00 0.00 44 1009.3
20260504224551 15 119 17.7 29.0 0.00 0.00 0.00 39 1009.0
20260504223045 14 94 17.7 33.8 0.00 0.00 0.00 42 1009.4
20260504221551 14 143 19.3 35.4 0.00 0.00 0.00 39 1009.3
20260504220110 15 89 20.9 40.2 0.00 0.00 0.00 37 1008.9
20260504214554 16 189 25.7 41.8 0.00 0.00 0.00 32 1008.5
20260504213053 18 179 4.8 12.9 0.00 0.00 0.00 27 1007.8
20260504211541 18 217 1.6 8.0 0.00 0.00 0.00 26 1008.0
20260504210041 20 224 1.6 6.4 0.00 0.00 0.00 24 1008.4
20260504204547 19 168 1.6 6.4 0.00 0.00 0.00 27 1008.5
20260504203054 18 113 8.0 20.9 0.00 0.00 0.00 29 1009.1
20260504201554 16 107 9.7 17.7 0.00 0.00 0.00 33 1009.3
20260504200054 15 114 6.4 16.1 0.00 0.00 0.00 37 1009.7
20260504194549 16 218 3.2 9.7 0.00 0.00 0.00 36 1009.3
20260504193048 16 212 1.6 9.7 0.00 0.00 0.00 33 1009.3
20260504191557 16 301 1.6 12.9 0.00 0.00 0.00 32 1010.0
20260504190059 16 312 4.8 14.5 0.00 0.00 0.00 29 1009.7
20260504184611 18 315 1.6 6.4 0.00 0.00 0.00 23 1008.8
20260504183052 18 197 4.8 16.1 0.00 0.00 0.00 22 1008.6
20260504181550 18 164 8.0 16.1 0.00 0.00 0.00 22 1008.5
20260504180054 20 212 0.0 9.7 0.00 0.00 0.00 23 1008.4
20260504174552 19 202 6.4 16.1 0.00 0.00 0.00 23 1008.5
20260504173049 19 115 3.2 19.3 0.00 0.00 0.00 21 1008.9
20260504171552 18 123 4.8 17.7 0.00 0.00 0.00 23 1009.2
20260504081547 11 96 1.6 6.4 0.00 0.00 0.00 31 1011.1
20260504044553 15 62 3.2 6.4 0.00 0.00 0.00 26 1012.0
20260504043052 15 53 3.2 8.0 0.00 0.00 0.00 27 1012.0